FW9747 Weather Reports


Display with metric or nautical units.
time (UTC)temp
F
wind
direction
speed
MPH
gust
MPH
rain 1hr
in
rain 24hr
in
rain mn
in
humidity
%
barometer
mb
20260906204641 73 315 16.0 22.0 0.00 0.00 0.00 82 1016.4
20260906203057 75 350 11.0 16.0 0.00 0.00 0.00 79 1016.3
20260906201620 76 39 5.0 11.0 0.00 0.00 0.00 79 1015.8
20260906200100 76 86 6.0 12.0 0.00 0.00 0.00 79 1015.8
20260906194605 77 105 12.0 23.0 0.00 0.00 0.00 77 1014.9
20260906193109 76 92 12.0 20.0 0.00 0.00 0.00 76 1014.5
20260906191621 76 49 16.0 21.0 0.00 0.00 0.00 77 1014.6
20260906184559 76 119 8.0 15.0 0.00 0.00 0.00 77 1015.2
20260906183104 76 53 6.0 14.0 0.00 0.00 0.00 77 1015.5
20260906181559 76 78 7.0 15.0 0.00 0.00 0.00 78 1015.7
20260906174612 74 57 11.0 16.0 0.00 0.00 0.00 1015.9
20260906173100 73 64 8.0 12.0 0.00 0.00 0.00 1016.7
20260906171600 71 96 6.0 13.0 0.00 0.00 0.00 1017.1
20260906170114 70 55 6.0 11.0 0.00 0.00 0.00 1017.3
20260906164604 70 85 7.0 12.0 0.00 0.00 0.00 1017.3
20260906163100 69 75 4.0 9.0 0.00 0.00 0.00 1017.5
20260906161607 68 33 4.0 8.0 0.00 0.00 0.00 1017.5
20260906160057 67 17 1.0 5.0 0.00 0.00 0.00 1018.0
20260906154556 67 86 0.0 3.0 0.00 0.00 0.00 1018.0
20260906153121 66 86 2.0 3.0 0.00 0.00 0.00 1017.8
20260906151601 66 72 3.0 5.0 0.00 0.00 0.00 1017.6
20260906150104 65 36 3.0 4.0 0.00 0.00 0.00 1017.5
20260906144605 65 352 1.0 5.0 0.00 0.01 0.00 1017.4
20260906143107 64 27 1.0 3.0 0.00 0.01 0.00 1017.5
20260906141610 63 148 0.0 1.0 0.00 0.01 0.00 1017.6
20260906140109 63 148 0.0 5.0 0.00 0.01 0.00 1017.6
20260906134622 63 131 2.0 7.0 0.00 0.13 0.00 99 1017.6
20260906133104 62 145 2.0 4.0 0.00 0.13 0.00 99 1017.7
20260906131556 61 149 2.0 6.0 0.00 0.13 0.00 99 1017.6
20260906130104 60 0 0.0 5.0 0.00 0.13 0.00 99 1017.2
20260906124607 59 36 1.0 5.0 0.00 0.21 0.00 99 1017.2
20260906123059 59 53 2.0 5.0 0.00 0.21 0.00 98 1017.2
20260906121602 58 348 3.0 5.0 0.00 0.21 0.00 98 1017.3
20260906120108 58 333 4.0 6.0 0.00 0.21 0.00 98 1017.3
20260906114622 58 313 0.0 3.0 0.00 0.21 0.00 98 1017.4
20260906113104 58 0 0.0 2.0 0.00 0.21 0.00 98 1017.4
20260906111624 58 0 0.0 0.0 0.00 0.21 0.00 98 1017.2
20260906110056 58 0 0.0 2.0 0.00 0.21 0.00 98 1017.2
20260906104606 58 340 2.0 4.0 0.00 0.21 0.00 98 1017.1
20260906103107 58 0 0.0 3.0 0.00 0.21 0.00 98 1016.7
20260906101557 58 28 2.0 4.0 0.00 0.21 0.00 97 1016.7
20260906094558 58 0 0.0 2.0 0.00 0.21 0.00 97 1016.6
20260906093105 58 63 0.0 3.0 0.00 0.21 0.00 98 1016.5
20260906091604 59 0 0.0 3.0 0.00 0.21 0.00 97 1016.6
20260906090116 60 352 0.0 3.0 0.00 0.21 0.00 97 1016.5
20260906084612 60 0 1.0 4.0 0.00 0.21 0.00 97 1016.7
20260906083103 60 304 2.0 5.0 0.00 0.21 0.00 97 1016.6
20260906081601 60 331 2.0 4.0 0.00 0.21 0.00 97 1016.6
20260906074607 61 0 0.0 4.0 0.00 0.21 0.00 97 1016.4
20260906073108 61 115 2.0 6.0 0.00 0.21 0.00 96 1016.0
20260906071558 61 126 4.0 8.0 0.00 0.21 0.00 96 1016.0
20260906070114 62 153 3.0 5.0 0.00 0.21 0.00 96 1016.1
20260906064600 61 140 2.0 6.0 0.00 0.21 0.00 96 1016.1
20260906063101 61 126 2.0 4.0 0.00 0.21 0.00 95 1016.1
20260906061625 61 92 3.0 7.0 0.00 0.21 0.00 95 1016.3
20260906060109 62 85 2.0 5.0 0.00 0.21 0.00 94 1016.4
20260906054559 62 76 5.0 9.0 0.00 0.21 0.00 94 1016.3
20260906053058 64 32 1.0 4.0 0.00 0.21 0.00 94 1016.3
20260906051556 63 163 3.0 5.0 0.00 0.21 0.00 94 1016.4
20260906050116 63 163 1.0 4.0 0.00 0.21 0.00 94 1016.3
20260906044600 63 163 1.0 4.0 0.00 0.21 0.21 92 1016.4
20260906043111 65 163 1.0 2.0 0.00 0.21 0.21 92 1016.3
20260906041601 65 163 0.0 5.0 0.00 0.21 0.21 91 1016.2
20260906040115 66 175 3.0 5.0 0.00 0.21 0.21 91 1016.2
20260906034602 67 165 2.0 6.0 0.00 0.21 0.21 91 1016.2
20260906033101 67 176 3.0 6.0 0.00 0.21 0.21 91 1016.1
20260906031610 67 167 3.0 6.0 0.00 0.21 0.21 90 1016.2
20260906030108 68 150 4.0 8.0 0.00 0.21 0.21 90 1016.1
20260906024559 68 188 4.0 9.0 0.00 0.21 0.21 90 1016.1
20260906023130 67 149 6.0 9.0 0.00 0.21 0.21 89 1016.0
20260906021608 68 119 4.0 7.0 0.00 0.21 0.21 88 1015.8
20260906020101 68 121 3.0 8.0 0.00 0.21 0.21 87 1015.8
20260906014620 69 103 4.0 9.0 0.00 0.21 0.21 85 1015.7
20260906013100 70 94 4.0 8.0 0.00 0.21 0.21 83 1015.5
20260906011559 71 114 4.0 6.0 0.00 0.21 0.21 81 1015.4
20260906010057 72 139 3.0 6.0 0.00 0.21 0.21 78 1015.5
20260906004614 74 135 2.0 5.0 0.00 0.21 0.21 75 1015.5
20260906003059 75 142 2.0 7.0 0.00 0.21 0.21 72 1015.2
20260906001557 76 163 2.0 6.0 0.00 0.21 0.21 69 1015.0
20260906000110 77 153 3.0 7.0 0.00 0.21 0.21 67 1015.1
20260905234604 78 140 2.0 5.0 0.00 0.21 0.21 66 1015.0
20260905233059 77 169 2.0 4.0 0.00 0.21 0.21 64 1014.9
20260905231603 78 159 3.0 6.0 0.00 0.21 0.21 64 1014.9
20260905230108 78 185 4.0 6.0 0.00 0.21 0.21 64 1014.7
20260905224608 78 171 4.0 7.0 0.00 0.21 0.21 64 1014.7
20260905223106 79 175 3.0 8.0 0.00 0.21 0.21 63 1014.4
20260905221602 79 194 4.0 7.0 0.00 0.21 0.21 62 1014.5
20260905220118 79 186 3.0 10.0 0.00 0.21 0.21 62 1014.3
20260905214606 79 145 7.0 15.0 0.00 0.21 0.21 63 1014.2
20260905213104 78 163 7.0 17.0 0.00 0.21 0.21 64 1014.2
20260905211610 78 155 10.0 17.0 0.00 0.21 0.21 64 1014.4